Regional Weather Roundup
Issued by NWS

Home | Current Version | Previous Version | Graphics & Text | Print | Product List | Glossary On
Versions: 1 2 3 4 5 6 7 8 9 10 11 12 13 14 15 16 17 18 19 20 21 22 23 24 25 26 27 28 29 30 31 32 33 34 35 36 37 38 39 40 41 42 43 44 45 46 47 48 49 50
000
ASUS45 KSLC 051610
RWRUT

UTAH REGIONAL WEATHER ROUNDUP
NATIONAL WEATHER SERVICE SALT LAKE CITY UT
1000 AM MDT TUE MAY 05 2015

UTZ001>011-023>025-051700-

NORTHERN UTAH

CITY           SKY/WX    TMP DP  RH WIND       PRES   REMARKS
DUGWAY         PTSUNNY   58  51  77 CALM      29.88F
HILL AFB       NOT AVBL
LOGAN          SUNNY     57  44  62 CALM      29.86F
OGDEN          CLOUDY    62  44  51 SE3       29.86S
PROVO AIRPORT  PTSUNNY   59  46  63 CALM      29.88S
SALT LAKE CITY CLOUDY    62  47  57 N7        29.86S
VERNAL         PTSUNNY   59  42  53 S5        29.87F
WENDOVER       CLOUDY    63  43  48 NE8       29.87R
HEBER CITY     CLOUDY    54  43  66 CALM      29.91S
WEST JORDAN    CLOUDY    61  50  67 SE3       29.88S

$$

UTZ012>022-026-027-051700-

SOUTHERN/CENTRAL UTAH

CITY           SKY/WX    TMP DP  RH WIND       PRES   REMARKS
BLANDING       CLOUDY    47  46  95 S5        30.00S
BRYCE CANYON   PTSUNNY   49  41  74 W10       29.98S
CEDAR CITY     CLOUDY    51  47  86 SW6       29.94S
DELTA          CLOUDY    57  47  68 SW7       29.90S
HANKSVILLE     CLOUDY    54  52  94 N5        29.90F
MILFORD        CLOUDY    53  49  86 S14       29.92R
MOAB/CYNLANDS  CLOUDY    57  50  77 W7        29.85S
PRICE          CLOUDY    54  46  74 CALM      29.90F
ST GEORGE      CLOUDY    61  50  67 W5        29.93R
KANAB          CLOUDY    54  46  76 CALM      29.97S

$$

REGIONAL REPORTS     COLORADO/ARIZONA

CITY           SKY/WX    TMP DP  RH WIND       PRES   REMARKS
CRAIG, CO      SUNNY     55  39  54 CALM      29.91F
GRAND JUNCTION PTSUNNY   60  44  55 NW7       29.85F
RIFLE          MOSUNNY   57  42  57 W3        29.87F
MONTROSE       LGT RAIN  54  45  71 CALM      29.90F
CORTEZ         LGT RAIN  49  45  86 CALM      29.94F
PAGE, AZ       PTSUNNY   61  49  64 CALM      29.89S
GRAND CANYON   CLOUDY    47  43  86 VRB6      30.01R
KINGMAN        CLOUDY    60  51  72 SE8       29.94S
FLAGSTAFF      CLOUDY    45  40  82 W8        30.02R

$$

REGIONAL REPORTS    NEVADA/IDAHO/WYOMING

CITY           SKY/WX    TMP DP  RH WIND       PRES   REMARKS
LAS VEGAS, NV  MOSUNNY   71  40  32 CALM      29.82S
ELY            CLOUDY    52  37  56 S5        29.96S
ELKO           MOSUNNY   55  39  54 W3        29.91F
POCATELLO, ID  MOSUNNY   60  45  57 NW8       29.85F
BURLEY         MOSUNNY   60  40  47 W9        29.84R
EVANSTON, WY   PTSUNNY   51  38  60 CALM      29.96F
ROCK SPRINGS   PTSUNNY   52  41  66 VRB3      29.94F
KEMMERER       MOSUNNY   54  41  62 NE5       29.97F

$$


USA.gov is the U.S. government's official web portal to all federal, state and local government web resources and services.